TimeCST,TemperatureF,Dew PointF,Humidity,Sea Level PressureIn,VisibilityMPH,Wind Direction,Wind SpeedMPH,Gust SpeedMPH,PrecipitationIn,Events,Conditions,WindDirDegrees,DateUTC
12:53 AM,24.1,14.0,65,29.94,10.0,North,9.2,-,N/A,,Clear,350,2013-01-12 06:53:00
1:53 AM,21.9,15.1,75,29.96,10.0,NNW,9.2,-,N/A,,Clear,330,2013-01-12 07:53:00
2:53 AM,21.0,12.9,71,30.00,10.0,North,6.9,-,N/A,,Clear,360,2013-01-12 08:53:00
3:53 AM,19.0,12.0,74,30.03,10.0,North,6.9,-,N/A,,Clear,350,2013-01-12 09:53:00
4:53 AM,19.9,12.9,74,30.03,10.0,NNW,5.8,-,N/A,,Clear,330,2013-01-12 10:53:00
5:53 AM,19.9,14.0,78,30.06,10.0,NNW,8.1,-,N/A,,Clear,330,2013-01-12 11:53:00
6:53 AM,19.9,10.9,68,30.09,10.0,NNW,9.2,-,N/A,,Clear,340,2013-01-12 12:53:00
7:53 AM,19.0,10.9,71,30.12,10.0,NW,5.8,-,N/A,,Clear,310,2013-01-12 13:53:00
8:53 AM,19.9,9.0,62,30.16,10.0,NNW,12.7,-,N/A,,Partly Cloudy,330,2013-01-12 14:53:00
9:53 AM,19.9,8.1,60,30.17,10.0,NNW,16.1,-,N/A,,Partly Cloudy,330,2013-01-12 15:53:00
10:53 AM,23.0,8.1,53,30.16,10.0,North,18.4,23.0,N/A,,Partly Cloudy,350,2013-01-12 16:53:00
11:53 AM,23.0,8.1,53,30.12,10.0,North,18.4,-,N/A,,Partly Cloudy,350,2013-01-12 17:53:00
12:53 PM,24.1,7.0,48,30.11,10.0,NW,19.6,26.5,N/A,,Scattered Clouds,320,2013-01-12 18:53:00
1:53 PM,24.1,7.0,48,30.10,10.0,NNW,17.3,26.5,N/A,,Mostly Cloudy,340,2013-01-12 19:53:00
2:53 PM,24.1,7.0,48,30.10,10.0,NNW,18.4,26.5,N/A,,Scattered Clouds,330,2013-01-12 20:53:00
3:53 PM,23.0,8.1,53,30.12,10.0,North,19.6,-,N/A,,Mostly Cloudy,350,2013-01-12 21:53:00
4:53 PM,21.0,8.1,57,30.15,10.0,North,15.0,-,N/A,,Clear,360,2013-01-12 22:53:00
5:53 PM,19.9,8.1,60,30.16,10.0,North,13.8,-,N/A,,Clear,350,2013-01-12 23:53:00
6:53 PM,19.0,9.0,65,30.19,10.0,North,9.2,-,N/A,,Clear,350,2013-01-13 00:53:00
7:53 PM,17.1,9.0,71,30.19,10.0,North,6.9,-,N/A,,Clear,360,2013-01-13 01:53:00
8:53 PM,14.0,8.1,77,30.19,10.0,NNW,9.2,-,N/A,,Clear,340,2013-01-13 02:53:00
9:53 PM,12.9,8.1,81,30.22,10.0,NNW,6.9,-,N/A,,Clear,340,2013-01-13 03:53:00
10:53 PM,14.0,7.0,74,30.22,10.0,North,11.5,-,N/A,,Clear,360,2013-01-13 04:53:00
11:53 PM,12.9,7.0,77,30.24,10.0,NNW,12.7,-,N/A,,Clear,340,2013-01-13 05:53:00